Temperature
23 22 21 21 20 20 20 20 19 19 19 19 19 19 19 19 18 19 18 18 18 18 18 18 18 18 18 18 18 18 18 18 18 18 19 19 19 19 19 19 19 18 18
23 22 21 21 21 20 20 20 20 19 19 19 19 19 19 19 19 19 18 18 18 18 18 18 18 18 18 18 18 18 18 18 18 18 19 20 20 19 19 19 18 18 18
24 23 22 21 21 21 20 20 20 20 19 19 19 19 19 19 19 19 18 18 18 18 18 18 18 18 18 18 18 18 18 18 18 18 19 20 20 20 20 19 19 18 18
24 23 22 22 21 21 20 20 20 20 20 19 19 19 19 19 19 19 19 19 18 18 18 18 18 18 18 18 18 18 18 18 18 18 18 18 18 19 20 20 19 18 18
25 24 23 22 22 21 21 20 20 20 20 20 19 19 19 19 19 19 19 19 18 18 18 18 18 18 18 18 18 18 18 18 18 18 18 18 18 18 19 20 19 19 19
25 24 23 23 22 21 21 20 20 20 20 20 19 19 19 19 19 19 19 19 19 19 18 18 18 18 18 18 18 18 18 18 18 18 18 18 18 18 19 19 19 19 19
25 24 24 23 22 22 21 20 20 20 20 20 20 20 19 19 19 19 19 19 19 19 19 18 18 18 18 18 18 18 18 18 18 18 18 18 18 18 18 18 19 19 19
25 24 23 23 22 22 21 20 20 20 20 20 20 20 19 19 19 19 18 18 18 18 18 18 18 18 18 18 18 18 18 18 18 18 18 18 18 18 18 18 18 19 19
25 24 23 23 22 21 21 20 20 20 20 20 20 20 19 19 19 18 18 18 18 18 18 18 18 18 18 18 18 18 18 18 18 17 17 17 18 17 17 17 17 18 19
24 24 23 22 22 22 21 20 20 20 20 19 19 19 19 19 19 18 18 18 18 18 18 18 18 18 18 18 18 18 17 17 17 17 17 17 17 17 17 17 17 17 18
24 23 23 22 22 21 21 20 20 20 20 20 19 19 19 19 19 18 18 18 18 18 18 18 18 18 18 17 18 17 17 17 17 17 17 17 17 17 17 17 17 17 17
24 23 22 22 22 21 21 20 20 20 20 20 19 19 19 19 18 18 18 18 18 18 18 18 18 17 17 17 17 17 17 17 17 17 17 17 17 17 17 17 17 17 17
23 23 22 21 21 21 21 20 20 20 20 19 19 19 19 18 18 18 18 18 18 18 17 17 17 17 17 17 17 17 17 17 17 17 17 17 17 17 17 17 17 17 17
22 22 21 21 21 20 20 20 20 19 19 19 19 19 18 18 18 18 18 17 17 17 17 17 17 17 17 17 17 17 17 17 17 16 16 16 16 16 16 16 16 16 16
22 21 21 20 20 20 20 19 19 19 19 19 19 18 18 18 18 18 17 17 17 17 17 17 17 17 16 16 16 16 16 16 16 16 16 16 16 16 16 16 16 16 16
21 21 20 20 20 19 19 19 19 19 19 18 18 18 18 18 17 17 17 17 17 17 17 16 16 16 16 16 16 16 16 16 16 16 16 16 16 16 16 16 16 16 16
21 20 20 20 19 19 19 19 19 18 18 18 18 17 17 17 17 17 17 16 16 16 16 16 16 16 16 16 16 16 16 15 15 15 16 15 16 15 15 16 16 16 16
20 20 20 19 19 19 19 18 18 18 18 18 17 17 17 17 16 16 16 16 16 16 16 16 16 16 15 16 16 16 16 15 15 15 15 15 15 15 15 15 15 15 15
19 19 19 19 19 18 18 18 18 18 17 17 17 16 16 16 16 16 16 16 15 15 15 15 15 15 15 15 15 15 15 15 15 15 15 15 15 15 15 15 15 15 15
19 18 18 18 18 18 18 18 17 17 17 16 16 16 16 16 15 15 15 15 15 15 15 15 15 14 15 15 15 15 14 14 14 14 14 14 14 14 15 14 14 14 14
18 18 17 17 17 17 17 17 16 16 16 16 16 16 15 15 15 15 15 15 14 14 14 14 14 14 14 14 14 14 14 14 14 14 14 14 14 14 14 14 14 14 14
17 17 17 16 16 16 16 16 16 16 15 15 15 15 15 15 15 14 14 14 14 14 14 14 14 14 14 13 13 13 13 13 13 13 13 13 13 13 14 14 13 14 13
17 16 16 16 16 16 15 15 15 15 15 15 14 14 14 14 14 14 14 14 14 14 14 14 14 13 13 13 13 13 13 13 13 13 13 13 13 13 13 13 13 13 13
16 16 15 15 15 15 15 15 15 14 14 14 14 14 14 14 14 13 13 13 13 13 13 13 13 13 13 13 12 12 12 12 12 12 12 12 12 12 12 12 12 12 12
15 15 15 15 14 14 14 14 14 14 14 13 13 13 13 13 13 13 13 12 12 12 12 12 12 12 12 12 12 12 12 12 12 11 11 12 12 12 12 12 12 12 12
15 15 14 14 14 14 14 13 13 13 13 13 13 13 13 13 12 12 12 12 12 12 12 12 11 11 12 12 12 11 11 11 11 11 11 11 11 11 12 12 12 12 11
Wind_Speed
12 12 12 12 12 11 11 10 10 9 7 6 5 5 5 4 4 4 4 5 5 4 4 4 2 3 2 2 3 2 2 2 2 3 3 3 3 3 3 3 3 3 4
11 12 12 13 13 13 12 11 10 9 8 6 5 4 3 3 3 3 3 5 5 5 5 4 4 3 2 3 2 2 3 2 2 3 3 2 2 3 3 3 3 3 3
12 13 13 13 13 13 13 11 11 10 9 8 6 4 4 4 4 4 4 4 5 5 5 5 4 3 4 3 3 2 3 3 2 2 3 3 2 2 2 3 3 3 3
12 12 14 14 14 14 13 11 10 10 9 9 8 8 6 5 4 4 3 4 5 5 5 5 5 5 4 3 4 2 3 4 3 2 2 3 4 4 2 3 2 3 3
12 12 13 13 13 13 12 11 11 10 10 9 9 8 7 6 4 4 4 4 4 5 5 5 5 5 5 4 4 3 4 4 4 3 3 3 3 5 5 4 3 3 3
10 11 11 11 12 12 12 11 11 10 9 10 9 9 8 7 6 5 4 5 4 4 5 5 5 6 5 4 5 5 5 4 5 4 4 3 3 4 4 5 5 4 3
9 9 10 11 11 12 12 11 11 10 10 10 9 9 8 8 7 6 5 5 4 4 5 5 5 5 5 5 5 5 5 6 6 6 5 4 5 5 5 6 6 5 4
7 8 9 9 10 11 11 11 10 10 10 9 9 8 8 7 6 6 6 5 5 5 4 5 6 6 6 6 5 5 5 5 6 7 6 5 5 5 5 5 6 6 5
6 6 7 8 9 10 10 10 10 9 8 8 8 7 7 7 6 6 6 6 5 5 5 5 6 6 6 6 6 5 6 5 6 6 6 6 5 6 6 5 5 6 6
5 6 7 7 8 9 10 10 9 8 7 6 6 5 6 6 6 6 6 6 6 5 5 6 6 6 6 6 6 6 6 6 6 5 6 6 7 5 6 6 6 6 7
5 6 6 6 7 7 8 8 8 8 7 7 6 5 5 5 5 5 5 5 5 5 6 6 6 6 6 6 5 6 6 6 7 7 7 8 8 7 6 6 6 6 6
4 5 5 6 6 7 7 7 7 7 7 7 6 6 5 5 5 5 5 5 5 5 5 5 6 6 6 6 6 6 6 6 7 7 8 8 7 7 7 7 7 7 6
4 4 5 5 5 5 5 6 6 6 6 6 6 6 5 5 6 5 5 5 4 4 4 5 5 6 6 6 6 6 6 7 7 7 8 8 8 8 7 7 7 7 7
4 4 4 4 4 4 4 5 5 5 6 6 5 5 5 5 5 4 4 4 4 4 4 4 4 5 5 5 6 6 6 7 7 7 7 8 8 8 8 7 8 7 8
4 3 4 4 4 4 4 4 4 4 4 4 4 4 3 3 3 3 3 3 4 4 3 4 4 4 4 5 5 6 7 6 7 7 7 7 6 6 6 7 7 7 7
3 3 3 3 3 3 3 3 3 3 4 3 3 3 3 3 3 2 2 3 3 3 3 4 4 5 4 2 3 5 6 6 7 7 7 7 7 7 7 8 8 7 8
3 3 3 3 3 3 3 3 3 4 4 4 4 3 3 3 3 3 2 3 3 3 4 4 5 5 4 3 4 5 7 8 7 7 8 8 6 6 7 7 9 9 9
3 3 3 3 2 2 2 2 2 3 3 3 3 3 3 3 3 3 3 3 3 3 4 5 5 5 5 4 5 5 8 8 8 8 8 8 7 6 5 7 7 7 8
3 3 2 3 2 2 2 2 2 2 2 2 2 2 2 2 3 3 3 3 4 4 5 5 5 6 5 4 5 6 7 7 8 7 7 7 7 3 4 7 8 8 7
3 3 3 3 3 2 1 1 1 1 2 2 2 2 2 3 3 3 4 4 4 5 5 5 5 5 5 2 3 6 6 7 7 6 6 5 6 5 4 7 8 8 7
3 3 3 3 2 2 1 1 0 0 1 1 1 2 2 3 3 3 3 4 4 4 4 5 4 4 4 2 2 4 5 6 7 6 6 5 3 5 5 7 8 7 7
4 4 3 2 2 2 2 1 1 1 1 1 1 1 2 3 2 3 3 4 4 4 4 4 5 4 3 2 2 4 6 7 8 7 7 5 2 5 7 7 7 7 7
4 3 3 3 2 2 1 1 1 1 1 1 1 2 2 2 3 3 3 4 4 4 4 4 5 4 3 2 3 4 6 7 7 6 6 6 6 7 8 8 8 7 6
3 3 3 2 2 1 1 1 1 1 1 1 2 3 3 3 3 3 4 4 4 4 4 5 5 5 4 4 4 4 4 5 6 6 6 8 8 8 7 5 6 6 6
3 3 3 2 2 1 0 1 1 1 2 2 3 3 3 3 3 3 2 3 3 3 5 5 6 6 6 5 6 6 5 5 5 6 6 6 5 5 5 5 5 5 5
3 3 3 2 2 1 1 1 2 2 3 3 3 3 3 3 3 3 2 0 2 1 2 4 6 5 5 5 6 6 6 7 6 5 6 6 6 6 6 6 5 5 5
Wind_Direction
190 188 191 193 192 191 192 193 196 190 193 196 203 206 209 214 215 223 226 235 239 229 239 262 237 262 264 288 291 284 265 271 296 286 273 249 229 236 225 237 246 226 231
188 190 193 195 196 195 195 194 196 194 197 199 207 213 219 224 227 231 225 238 241 239 229 236 252 245 248 250 276 277 287 282 274 293 294 266 207 218 223 219 223 238 230
194 192 196 197 197 197 197 198 198 198 202 202 202 206 210 225 224 220 221 233 241 245 253 246 256 257 257 250 257 264 269 283 273 275 289 295 307 303 209 225 220 236 248
200 197 196 197 199 198 196 196 195 199 200 200 207 213 220 228 232 237 229 233 236 244 245 244 246 255 259 251 253 245 261 265 273 250 259 285 307 289 279 232 216 219 234
201 199 199 197 198 195 192 192 193 198 199 202 205 214 227 230 230 231 227 237 230 235 245 243 242 244 253 254 265 263 261 257 268 272 265 262 258 261 278 285 283 244 235
197 195 194 191 192 189 189 188 189 194 197 201 205 212 223 229 233 234 236 233 226 228 235 242 241 243 247 242 245 248 243 254 262 267 264 265 272 276 273 277 275 274 257
190 187 187 186 186 186 187 186 187 192 195 201 206 209 217 223 227 234 235 246 247 239 233 241 238 245 242 243 249 245 251 243 243 249 255 257 264 273 277 281 283 279 268
180 178 181 184 184 184 185 185 187 192 195 200 206 211 217 224 227 228 242 242 253 254 248 244 242 242 242 243 242 249 243 239 242 249 251 255 258 265 267 273 286 283 269
167 168 171 178 180 181 182 185 185 190 195 198 201 211 216 227 236 238 238 244 245 247 239 242 241 242 241 244 245 248 248 245 245 244 236 247 254 253 259 260 266 277 281
163 165 167 169 176 179 179 184 185 188 193 197 202 202 213 223 233 242 246 252 250 251 250 245 242 242 242 242 245 250 246 245 247 249 253 254 259 257 253 257 258 260 272
152 159 163 167 169 174 175 179 181 182 188 198 201 204 205 212 221 231 240 244 249 245 244 246 248 247 247 246 245 251 252 250 252 254 248 248 260 260 259 253 254 254 256
142 150 151 157 165 168 171 176 182 186 190 191 195 205 205 208 216 221 229 237 243 248 246 246 247 248 248 247 248 254 258 255 256 257 260 259 256 252 258 259 254 254 256
137 144 145 152 163 168 169 174 185 191 191 190 196 201 204 210 219 223 227 235 242 249 255 253 249 249 253 254 253 254 258 259 262 264 264 265 263 259 257 257 259 257 253
133 133 138 147 153 158 165 175 183 187 188 186 190 201 210 216 222 228 232 238 243 246 249 252 250 253 257 262 262 260 259 260 263 266 268 269 266 265 265 258 257 259 262
138 140 143 141 149 154 164 172 174 174 179 182 187 196 205 208 217 227 231 234 240 243 244 251 255 259 258 260 265 265 261 260 263 264 266 267 272 285 277 276 271 264 260
148 146 145 148 156 162 167 167 164 158 158 168 179 183 195 205 210 221 232 237 239 245 243 245 250 256 262 271 277 270 273 269 264 265 267 264 252 253 248 261 271 274 263
150 151 152 151 150 157 160 166 164 165 174 184 194 194 205 214 217 222 222 233 239 244 251 255 255 256 257 247 246 253 266 267 266 267 270 273 271 254 262 249 240 246 245
141 131 140 139 142 143 141 149 161 171 186 196 204 211 222 228 231 233 236 239 242 244 248 253 259 266 264 234 241 249 252 263 265 264 265 268 274 275 277 271 264 257 248
133 123 117 118 117 125 131 144 161 173 193 206 218 229 229 230 236 246 253 257 255 253 253 257 261 267 271 237 234 249 262 263 267 267 267 270 269 274 282 270 269 267 262
130 122 116 108 112 116 130 153 178 194 226 237 241 250 241 238 248 256 263 265 260 262 266 270 268 270 275 238 230 250 264 270 270 264 260 250 263 278 261 265 269 268 269
129 123 118 107 103 109 117 111 83 312 312 293 278 277 266 251 255 259 264 270 270 275 278 279 277 273 273 233 217 253 267 277 277 277 274 270 213 247 253 261 267 274 282
137 132 121 109 101 112 129 119 70 10 353 317 292 285 278 273 273 271 274 277 279 271 271 273 274 270 262 261 243 238 254 278 280 279 280 288 267 254 250 254 267 273 268
151 148 142 130 117 108 114 110 43 10 352 330 308 298 291 280 281 273 274 269 267 277 284 288 288 290 291 267 222 238 250 262 270 280 292 296 279 260 249 239 241 244 250
165 164 160 153 141 132 105 54 16 14 336 295 290 287 288 286 281 278 283 287 294 297 298 298 297 299 296 301 304 294 274 258 264 277 270 252 249 249 257 249 237 241 247
175 177 179 180 176 176 209 320 316 307 291 285 287 288 285 284 279 282 304 299 319 323 305 303 302 302 301 324 334 308 302 297 293 293 281 279 270 261 258 251 248 248 245
182 189 195 196 206 224 247 288 289 284 274 267 270 279 285 286 280 273 272 133 239 233 266 282 289 300 304 306 310 304 298 294 290 286 280 280 278 274 272 266 259 252 253
Height
1540 1542 1544 1546 1549 1550 1552 1554 1556 1558 1559 1561 1563 1564 1565 1566 1567 1567 1567 1567 1567 1567 1567 1568 1567 1567 1567 1567 1567 1566 1566 1566 1565 1565 1565 1564 1564 1563 1562 1562 1562 1562 1562
1537 1540 1542 1544 1546 1548 1550 1552 1554 1556 1558 1559 1561 1562 1564 1565 1566 1566 1565 1566 1566 1566 1567 1566 1566 1566 1566 1565 1565 1564 1565 1565 1564 1564 1564 1563 1563 1561 1561 1561 1560 1560 1560
1533 1536 1538 1541 1543 1545 1547 1550 1552 1554 1556 1558 1560 1561 1562 1563 1564 1564 1564 1564 1564 1564 1565 1565 1565 1565 1565 1565 1563 1563 1563 1563 1563 1563 1563 1562 1561 1561 1560 1559 1559 1558 1558
1530 1532 1535 1537 1540 1543 1545 1547 1549 1551 1553 1555 1557 1559 1560 1561 1562 1562 1562 1562 1562 1562 1563 1562 1562 1562 1563 1562 1562 1562 1561 1561 1562 1561 1560 1561 1560 1560 1558 1558 1557 1556 1556
1526 1529 1531 1534 1537 1540 1542 1545 1547 1549 1551 1552 1554 1556 1558 1559 1560 1560 1560 1560 1560 1560 1560 1560 1560 1560 1561 1560 1560 1559 1559 1560 1560 1560 1559 1559 1558 1558 1558 1556 1556 1555 1554
1523 1526 1528 1531 1534 1537 1540 1542 1544 1545 1548 1549 1551 1553 1555 1556 1557 1557 1558 1558 1558 1558 1558 1558 1558 1558 1558 1558 1557 1557 1557 1557 1557 1557 1557 1557 1557 1556 1555 1554 1554 1553 1553
1520 1523 1526 1528 1531 1534 1536 1539 1541 1543 1545 1547 1549 1550 1552 1553 1553 1554 1555 1555 1556 1557 1556 1556 1555 1555 1555 1555 1555 1554 1554 1554 1554 1554 1554 1554 1554 1554 1553 1553 1552 1551 1550
1518 1520 1523 1526 1529 1531 1534 1536 1538 1540 1542 1544 1545 1547 1548 1550 1551 1551 1552 1553 1553 1554 1553 1552 1552 1552 1552 1552 1552 1552 1551 1551 1551 1551 1551 1551 1551 1551 1550 1550 1550 1548 1548
1516 1519 1521 1524 1527 1529 1531 1534 1536 1537 1539 1541 1542 1544 1545 1547 1548 1548 1549 1550 1550 1550 1550 1549 1549 1549 1549 1549 1549 1549 1548 1548 1548 1548 1548 1548 1548 1548 1547 1547 1546 1547 1545
1516 1518 1521 1522 1525 1528 1529 1532 1533 1535 1537 1538 1540 1542 1542 1544 1545 1545 1546 1546 1546 1546 1546 1546 1546 1546 1546 1546 1546 1546 1546 1545 1545 1544 1544 1544 1544 1544 1543 1543 1543 1543 1543
1515 1518 1520 1521 1524 1526 1528 1529 1531 1532 1534 1536 1537 1539 1540 1541 1542 1542 1542 1542 1543 1543 1542 1542 1542 1543 1543 1543 1542 1543 1542 1542 1542 1541 1541 1540 1540 1540 1540 1540 1539 1539 1538
1516 1517 1519 1521 1523 1525 1526 1528 1529 1531 1532 1534 1535 1536 1537 1538 1538 1539 1539 1539 1539 1539 1539 1539 1539 1539 1539 1539 1539 1539 1539 1538 1538 1537 1537 1537 1537 1536 1535 1535 1535 1534 1534
1516 1517 1518 1520 1522 1524 1525 1527 1528 1529 1530 1531 1532 1533 1534 1535 1535 1536 1536 1536 1536 1536 1536 1536 1536 1536 1536 1535 1535 1535 1535 1535 1534 1534 1533 1533 1532 1531 1531 1530 1530 1530 1530
1516 1517 1518 1520 1521 1523 1524 1525 1526 1527 1528 1529 1530 1531 1532 1532 1533 1533 1533 1533 1533 1533 1533 1532 1532 1532 1532 1532 1532 1531 1531 1531 1530 1530 1529 1529 1528 1528 1527 1527 1526 1526 1526
1515 1516 1518 1519 1520 1522 1523 1524 1524 1525 1526 1527 1528 1529 1529 1530 1530 1530 1530 1530 1530 1530 1529 1529 1529 1528 1528 1528 1528 1528 1528 1527 1527 1526 1525 1524 1524 1523 1523 1523 1522 1522 1521
1514 1515 1516 1518 1518 1519 1521 1522 1522 1523 1524 1525 1526 1527 1527 1528 1528 1528 1527 1527 1527 1527 1526 1526 1525 1525 1525 1524 1524 1523 1523 1523 1523 1522 1521 1520 1519 1519 1518 1518 1518 1517 1517
1513 1514 1515 1516 1517 1518 1519 1520 1521 1522 1522 1523 1524 1525 1525 1525 1525 1525 1525 1524 1524 1523 1523 1522 1522 1521 1520 1520 1520 1519 1519 1519 1519 1517 1517 1517 1517 1515 1514 1513 1513 1512 1512
1512 1512 1513 1515 1516 1517 1517 1518 1519 1520 1521 1521 1522 1522 1523 1523 1522 1522 1522 1521 1521 1520 1520 1519 1519 1518 1517 1516 1516 1515 1515 1515 1514 1513 1512 1512 1512 1511 1510 1509 1509 1508 1507
1510 1511 1512 1513 1514 1515 1516 1516 1517 1518 1518 1519 1519 1519 1519 1519 1519 1519 1518 1517 1517 1517 1516 1516 1514 1514 1513 1513 1512 1511 1510 1510 1509 1508 1508 1507 1507 1506 1505 1505 1504 1503 1503
1509 1510 1511 1512 1512 1513 1514 1514 1515 1515 1516 1516 1516 1516 1516 1516 1516 1516 1515 1514 1514 1513 1513 1512 1511 1510 1509 1508 1508 1507 1507 1506 1505 1504 1503 1502 1502 1501 1501 1500 1500 1499 1498
1507 1508 1510 1510 1511 1511 1512 1512 1513 1513 1514 1514 1514 1513 1513 1513 1513 1512 1512 1511 1511 1510 1510 1508 1507 1506 1505 1504 1503 1503 1502 1502 1501 1500 1499 1498 1497 1496 1496 1495 1495 1494 1494
1506 1507 1508 1509 1509 1509 1510 1510 1510 1511 1511 1511 1511 1510 1510 1510 1510 1509 1508 1508 1507 1506 1506 1505 1504 1503 1502 1500 1499 1498 1498 1497 1496 1495 1495 1494 1492 1491 1491 1490 1490 1490 1490
1505 1506 1507 1507 1507 1508 1508 1508 1508 1508 1508 1508 1508 1507 1507 1507 1506 1506 1505 1505 1504 1503 1502 1501 1500 1500 1498 1497 1495 1494 1493 1492 1491 1490 1489 1488 1487 1486 1485 1485 1485 1485 1485
1504 1505 1505 1506 1506 1506 1506 1506 1506 1505 1505 1505 1505 1504 1504 1503 1503 1502 1502 1501 1500 1499 1499 1498 1497 1496 1495 1493 1492 1490 1489 1487 1486 1485 1484 1483 1482 1481 1481 1480 1480 1480 1480
1502 1503 1504 1504 1504 1504 1504 1504 1503 1503 1503 1502 1502 1502 1501 1500 1499 1499 1498 1498 1497 1496 1495 1494 1494 1492 1491 1489 1488 1487 1485 1484 1482 1480 1479 1479 1478 1477 1477 1476 1476 1476 1476
1500 1501 1502 1502 1502 1502 1502 1501 1501 1500 1500 1499 1499 1499 1499 1498 1497 1496 1495 1494 1494 1492 1491 1490 1489 1487 1486 1485 1483 1482 1481 1480 1478 1477 1475 1475 1474 1473 1473 1473 1472 1472 1471